星链-3326 (STARLINK-3326 )
导读
STARLINK-3326是美国SpaceX公司星链(Starlink)卫星互联网星座中的一员,于2022年1月6日发射升空。作为星链低轨星座组成部分,运行在近地轨道,为全球提供高速低延迟互联网接入服务,重点覆盖地面基础设施难以抵达的偏远区域。截至2025年底,该卫星已在轨运行超三年,目前状态良好,持续助力星链全球网络服务的部署与运营。
Basic Information
目录编号:
50844
目录名称:
STARLINK-3326
国际标识:
2022-001AT
轨道中心:
EARTH
卫星名称:
星链-3326
卫星全名:
星链-3326 (STARLINK-3326 )
卫星状态:
在轨 (已飞行1702 天)
发射日期:
2022-01-06 UTC
国别 :
美国
(US)
星等 :
--
Orbit Information
| 数据来源 | 国际轨道数据 | AOE轨道数据 |
| 星历时间 | 2026-09-02T14:52:08+0800 1天前 查看轨道信息 | 2026-08-30T01:00:00+0800 5天前 查看轨道信息 |
| 半长轴 | 6838.101km | 6838.759km |
| 偏心率 | 0.0001712 | 0.000203 |
| 轨道倾角 | 53.157° | 53.158° |
| 近地点辐角 | 120.412° | 109.826° |
| 升交点赤经 | 94.843° | 111.592° |
| 平近点角 | 239.705° | 265.327° |
| 近地点 | 458.793km | 459.233km |
| 远地点 | 461.135km | 462.011km |
| 周期 | 93.791分钟 | 93.805分钟 |
| 每日圈数 | 15.353223 | 15.351005 |
Detailed Information
固有亮度:
5
最大亮度:
2.5
卫星平台:
Starlink v1.5
覆盖范围:
全球
运营商:
太空探索技术公司
运营商所在国:
美国
制造商(研发单位):
太空探索技术公司
制造商所在国:
美国
使用方式:
暂无
Satellite Introduction
星链(Starlink)计划是由太空探索技术公司(SpaceX)提出的一个巨型低轨卫星互联网星座项目,计划在2019年至2024年间在太空搭建由约1.2万颗卫星组成的“星链”网络,其中1584颗将部署在地球上空550千米处的近地轨道,并从2020年开始工作。该卫星仍在工作。
2D Orbit Map
3D Orbit Map
Orbit Altitude Analysis Chart
Orbit Inclination Analysis Chart
Orbit Comprehensive Analysis Chart
View Comprehensive ChartConjunction Data List
| Event ID | Objects | TCA | Miss Dist (km) | Collision Risk Probability | Collision Risk Index (CRI) | Action |
|---|---|---|---|---|---|---|
| CDM_260830-111305-084406-663922 |
STARLINK-3326
(50844)
STARLINK-35908
(66639) | 2026-08-30T 11:13:02+0000 |
0.380 km
远距离 | 2.168326E-4 高风险 | 0.82 | |
| CDM_260903-184105-084406-491222 |
STARLINK-3326
(50844)
STARLINK-34711
(64912) | 2026-09-03T 18:41:22+0000 |
2.178 km
极远距离 | 2.017755E-6 低风险 | 0.41 | |
| CDM_260903-214805-084406-924121 |
STARLINK-3326
(50844)
STARLINK-37742
(69241) | 2026-09-03T 21:48:07+0000 |
2.370 km
极远距离 | 1.6805E-6 低风险 | 0.4 | |
| CDM_260904-102405-084405-877123 |
STARLINK-3326
(50844)
STARLINK-31135
(58771) | 2026-09-04T 10:24:26+0000 |
2.545 km
极远距离 | 1.51896E-6 低风险 | 0.39 | |
| CDM_260903-110805-084406-100822 |
STARLINK-3326
(50844)
STARLINK-32340
(61008) | 2026-09-03T 11:08:51+0000 |
2.557 km
极远距离 | 1.431283E-6 低风险 | 0.38 | |
| CDM_260901-054705-084406-945321 |
STARLINK-3326
(50844)
STARLINK-37500
(69453) | 2026-09-01T 05:47:08+0000 |
2.659 km
极远距离 | 1.396361E-6 低风险 | 0.38 | |
| CDM_260829-173105-084405-114621 |
STARLINK-3326
(50844)
STARLINK-3354
(51146) | 2026-08-29T 17:31:25+0000 |
2.702 km
极远距离 | 1.26929E-6 低风险 | 0.37 | |
| CDM_260903-063305-084406-610621 |
STARLINK-3326
(50844)
STARLINK-35584
(66106) | 2026-09-03T 06:33:02+0000 |
2.997 km
极远距离 | 1.009601E-6 低风险 | 0.35 |

